Location: Newark
(51.3000°N, 4.9833°E)
Time: 15:29:42
(UTC+00:00)

Envisat - Visible Passes

Search period start: 16 October 2019 00:00
Search period end: 26 October 2019 00:00
Orbit: 764 x 766 km, 98.1° (Epoch: 16 October)

Date Brightness Start Highest point End Pass type
(mag) Time Alt. Az. Time Alt. Az. Time Alt. Az.
16 Oct 6.1 05:23:19 10° NE 05:26:35 17° E 05:29:51 10° SE visible
16 Oct 4.6 18:21:28 10° SSW 18:26:09 37° W 18:30:54 10° NNW visible
17 Oct 3.3 17:44:09 10° S 17:49:14 74° WSW 17:54:21 10° NNW visible
17 Oct 6.2 19:27:20 10° WSW 19:29:10 12° W 19:31:02 10° WNW visible
18 Oct 5.4 18:47:51 10° SW 18:51:54 24° W 18:55:58 10° NW visible
19 Oct 6.3 05:12:35 10° NE 05:15:10 14° E 05:17:43 10° ESE visible
19 Oct 4.2 18:09:57 10° S 18:14:49 45° W 18:19:44 10° NNW visible
20 Oct 3.0 17:32:52 10° SSE 17:37:57 89° WSW 17:43:05 10° NNW visible
20 Oct 6.0 19:14:56 10° WSW 19:17:44 15° W 19:20:33 10° NW visible
21 Oct 5.9 05:37:04 10° NE 05:41:01 22° E 05:44:57 10° SE visible
21 Oct 5.1 18:36:09 10° SSW 18:40:31 29° W 18:44:55 10° NNW visible
22 Oct 6.6 05:02:19 10° ENE 05:03:43 11° E 05:05:07 10° E visible
22 Oct 3.8 17:58:32 10° S 18:03:31 56° W 18:08:32 10° NNW visible
23 Oct 3.0 17:21:37 10° SSE 17:26:42 76° ENE 17:31:48 10° NNW visible
23 Oct 5.8 19:02:53 10° SW 19:06:19 18° W 19:09:46 10° NW visible
24 Oct 6.0 05:26:07 10° NE 05:29:37 18° E 05:33:06 10° SE visible
24 Oct 4.7 18:24:32 10° SSW 18:29:09 35° W 18:33:49 10° NNW visible
25 Oct 3.4 17:47:09 10° S 17:52:13 68° WSW 17:57:18 10° NNW visible
25 Oct 6.2 19:30:58 10° W 19:32:13 11° W 19:33:28 10° WNW visible
